AIC538 VOMM-VIDP

Flight info

Callsign AIC538
Flight time 2h 39m
Altitude 40000
Route KAMGU2B KAMGU Q24 BAVOX BAVOX6C
Aircraft A359/H-SDE2E3GHIJ3J4J5LM1ORWXY/LB1D1

Departure

Time 2026-04-23 11:59
Airport Chennai International Airport (VOMM)

Arrival

Time 2026-04-23 14:38
Airport Indira Gandhi International Airport (VIDP)
Time Latitude Longitude Altitude Speed Heading
2026-04-23 11:53 12.99200 80.17838 58 ft 0 kts 65°
2026-04-23 11:54 12.99202 80.17843 59 ft 2 kts 66°
2026-04-23 11:54 12.99217 80.17879 63 ft 9 kts 66°
2026-04-23 11:55 12.99231 80.17912 63 ft 12 kts 66°
2026-04-23 11:55 12.99273 80.18009 61 ft 17 kts 66°
2026-04-23 11:55 12.99325 80.18131 60 ft 19 kts 68°
2026-04-23 11:55 12.99367 80.18234 62 ft 11 kts 67°
2026-04-23 11:56 12.99405 80.18293 60 ft 8 kts 48°
2026-04-23 11:56 12.99411 80.18300 59 ft 0 kts 47°
2026-04-23 11:57 12.99412 80.18301 59 ft 1 kts 47°
2026-04-23 11:57 12.99430 80.18320 59 ft 8 kts 44°
2026-04-23 11:58 12.99478 80.18367 63 ft 7 kts 44°
2026-04-23 11:58 12.99520 80.18403 65 ft 8 kts 29°
2026-04-23 11:58 12.99561 80.18379 61 ft 9 kts 277°
2026-04-23 11:58 12.99547 80.18314 63 ft 12 kts 252°
2026-04-23 11:59 12.99446 80.18042 64 ft 79 kts 246°
2026-04-23 11:59 12.99160 80.17291 58 ft 145 kts 251°
2026-04-23 11:59 12.98756 80.16146 297 ft 184 kts 252°
2026-04-23 11:59 12.98702 80.14852 1153 ft 185 kts 289°
2026-04-23 12:00 12.99595 80.13869 1823 ft 205 kts 335°
2026-04-23 12:00 13.01054 80.13602 2184 ft 224 kts
2026-04-23 12:00 13.02699 80.13522 2398 ft 255 kts 357°
2026-04-23 12:00 13.04561 80.13267 2888 ft 273 kts 352°
2026-04-23 12:01 13.06424 80.13089 3700 ft 273 kts
2026-04-23 12:01 13.08303 80.13334 4567 ft 274 kts 13°
2026-04-23 12:01 13.10191 80.13663 5305 ft 277 kts 14°
2026-04-23 12:01 13.12102 80.13983 5781 ft 279 kts 13°
2026-04-23 12:02 13.14018 80.14284 5968 ft 279 kts 12°
2026-04-23 12:02 13.15937 80.14574 5869 ft 279 kts 12°
2026-04-23 12:02 13.17852 80.14855 5782 ft 278 kts 12°
2026-04-23 12:02 13.19770 80.15133 5772 ft 279 kts 12°
2026-04-23 12:03 13.21718 80.15239 5770 ft 282 kts
2026-04-23 12:03 13.23678 80.15144 5762 ft 282 kts
2026-04-23 12:03 13.25636 80.15019 5765 ft 282 kts
2026-04-23 12:03 13.27593 80.14894 5766 ft 282 kts
2026-04-23 12:04 13.29549 80.14773 5764 ft 282 kts
2026-04-23 12:04 13.31497 80.14537 5759 ft 285 kts 351°
2026-04-23 12:04 13.33384 80.13887 5966 ft 286 kts 341°
2026-04-23 12:04 13.35222 80.13087 6589 ft 287 kts 341°
2026-04-23 12:05 13.37051 80.12285 7512 ft 284 kts 341°
2026-04-23 12:05 13.38866 80.11496 8422 ft 283 kts 341°
2026-04-23 12:05 13.40687 80.10704 9312 ft 285 kts 341°
2026-04-23 12:05 13.42516 80.09908 10115 ft 290 kts 342°
2026-04-23 12:06 13.44418 80.09091 10493 ft 310 kts 341°
2026-04-23 12:06 13.46479 80.08209 10799 ft 331 kts 341°
2026-04-23 12:06 13.50939 80.06284 11586 ft 360 kts 340°
2026-04-23 12:07 13.53261 80.05270 12227 ft 365 kts 340°
2026-04-23 12:07 13.55613 80.04244 12886 ft 370 kts 340°
2026-04-23 12:07 13.57997 80.03206 13523 ft 374 kts 340°
2026-04-23 12:07 13.60411 80.02157 14097 ft 379 kts 340°
2026-04-23 12:08 13.62847 80.01097 14671 ft 382 kts 340°
2026-04-23 12:08 13.65303 80.00027 15245 ft 385 kts 340°
2026-04-23 12:08 13.67787 79.98948 15804 ft 389 kts 339°
2026-04-23 12:08 13.70289 79.97860 16351 ft 393 kts 339°
2026-04-23 12:09 13.72818 79.96761 16889 ft 397 kts 339°
2026-04-23 12:09 13.75374 79.95649 17405 ft 401 kts 338°
2026-04-23 12:09 13.77951 79.94528 17934 ft 404 kts 338°
2026-04-23 12:09 13.80557 79.93394 18403 ft 408 kts 338°
2026-04-23 12:10 13.83179 79.92252 18845 ft 411 kts 337°
2026-04-23 12:10 13.85826 79.91099 19283 ft 415 kts 337°
2026-04-23 12:10 13.88495 79.89937 19731 ft 419 kts 337°
2026-04-23 12:10 13.91191 79.88763 20186 ft 422 kts 336°
2026-04-23 12:11 13.93907 79.87580 20658 ft 426 kts 336°
2026-04-23 12:11 13.96642 79.86387 21141 ft 429 kts 336°
2026-04-23 12:11 13.99364 79.85200 21619 ft 433 kts 336°
2026-04-23 12:11 14.02148 79.83986 22101 ft 436 kts 336°
2026-04-23 12:12 14.04949 79.82765 22609 ft 439 kts 336°
2026-04-23 12:12 14.07778 79.81531 23070 ft 443 kts 336°
2026-04-23 12:12 14.10621 79.80291 23495 ft 447 kts 336°
2026-04-23 12:12 14.13495 79.79037 23879 ft 450 kts 335°
2026-04-23 12:13 14.16390 79.77772 24294 ft 454 kts 335°
2026-04-23 12:13 14.19305 79.76499 24718 ft 457 kts 335°
2026-04-23 12:13 14.22246 79.75214 25168 ft 461 kts 335°
2026-04-23 12:13 14.25210 79.73919 25632 ft 464 kts 335°
2026-04-23 12:14 14.28194 79.72615 26094 ft 468 kts 334°
2026-04-23 12:14 14.31209 79.71296 26555 ft 472 kts 334°
2026-04-23 12:14 14.34243 79.69969 27013 ft 476 kts 334°
2026-04-23 12:14 14.37306 79.68629 27465 ft 480 kts 334°
2026-04-23 12:15 14.40385 79.67282 27921 ft 484 kts 334°
2026-04-23 12:15 14.43499 79.65919 28374 ft 487 kts 333°
2026-04-23 12:15 14.46632 79.64547 28816 ft 491 kts 333°
2026-04-23 12:15 14.49785 79.63167 29254 ft 495 kts 333°
2026-04-23 12:16 14.52967 79.61773 29679 ft 498 kts 333°
2026-04-23 12:16 14.55090 79.60843 29917 ft 501 kts 333°
2026-04-23 12:16 14.59404 79.58952 30354 ft 506 kts 333°
2026-04-23 12:16 14.62613 79.57544 30658 ft 510 kts 333°
2026-04-23 12:17 14.65891 79.56106 30965 ft 514 kts 333°
2026-04-23 12:17 14.69186 79.54660 31266 ft 517 kts 333°
2026-04-23 12:17 14.72512 79.53201 31560 ft 521 kts 333°
2026-04-23 12:17 14.75855 79.51733 31854 ft 524 kts 333°
2026-04-23 12:18 14.79220 79.50255 32137 ft 527 kts 333°
2026-04-23 12:18 14.82601 79.48769 32413 ft 530 kts 333°
2026-04-23 12:18 14.86003 79.47273 32687 ft 533 kts 333°
2026-04-23 12:18 14.88266 79.46278 32900 ft 534 kts 333°
2026-04-23 12:19 14.91683 79.44776 33289 ft 534 kts 333°
2026-04-23 12:19 14.95105 79.43274 33677 ft 534 kts 333°
2026-04-23 12:19 14.98194 79.42089 33979 ft 539 kts 337°
2026-04-23 12:19 15.02269 79.40873 34414 ft 540 kts 340°
2026-04-23 12:20 15.05062 79.40129 34747 ft 539 kts 341°
2026-04-23 12:20 15.07473 79.39524 35029 ft 538 kts 341°
2026-04-23 12:20 15.12341 79.38354 35579 ft 536 kts 341°
2026-04-23 12:20 15.14743 79.37787 35839 ft 535 kts 341°
2026-04-23 12:21 15.19536 79.36655 36345 ft 533 kts 341°
2026-04-23 12:21 15.21976 79.36074 36596 ft 532 kts 341°
2026-04-23 12:21 15.25582 79.35210 36971 ft 531 kts 341°
2026-04-23 12:21 15.29175 79.34345 37354 ft 529 kts 341°
2026-04-23 12:22 15.32702 79.33492 37733 ft 527 kts 341°
2026-04-23 12:22 15.36266 79.32628 38097 ft 526 kts 341°
2026-04-23 12:22 15.39829 79.31763 38463 ft 524 kts 341°
2026-04-23 12:22 15.43371 79.30903 38757 ft 523 kts 341°
2026-04-23 12:23 15.46912 79.30044 39086 ft 520 kts 341°
2026-04-23 12:23 15.50421 79.29192 39422 ft 517 kts 341°
2026-04-23 12:23 15.53921 79.28342 39690 ft 516 kts 341°
2026-04-23 12:23 15.57413 79.27493 39759 ft 515 kts 341°
2026-04-23 12:24 15.64386 79.25797 39767 ft 513 kts 341°
2026-04-23 12:24 15.71334 79.24106 39771 ft 513 kts 341°
2026-04-23 12:25 15.78289 79.22413 39774 ft 513 kts 341°
2026-04-23 12:25 15.85238 79.20721 39780 ft 513 kts 341°
2026-04-23 12:26 15.92190 79.19027 39787 ft 513 kts 341°
2026-04-23 12:26 15.99137 79.17334 39787 ft 513 kts 341°
2026-04-23 12:27 16.06085 79.15659 39798 ft 513 kts 341°
2026-04-23 12:27 16.12986 79.13993 39799 ft 513 kts 341°
2026-04-23 12:28 16.19986 79.12303 39802 ft 513 kts 341°
2026-04-23 12:28 16.26884 79.10636 39809 ft 513 kts 341°
2026-04-23 12:29 16.33833 79.08956 39809 ft 512 kts 341°
2026-04-23 12:29 16.40782 79.07274 39810 ft 512 kts 341°
2026-04-23 12:30 16.47727 79.05592 39809 ft 512 kts 341°
2026-04-23 12:30 16.54668 79.03909 39814 ft 512 kts 341°
2026-04-23 12:31 16.61609 79.02225 39816 ft 512 kts 341°
2026-04-23 12:31 16.68550 79.00539 39815 ft 512 kts 341°
2026-04-23 12:32 16.75485 78.98855 39818 ft 512 kts 341°
2026-04-23 12:32 16.82419 78.97170 39824 ft 512 kts 341°
2026-04-23 12:33 16.89351 78.95484 39831 ft 512 kts 341°
2026-04-23 12:33 16.96240 78.93807 39833 ft 512 kts 341°
2026-04-23 12:34 17.03172 78.92118 39847 ft 511 kts 341°
2026-04-23 12:34 17.10100 78.90428 39839 ft 511 kts 341°
2026-04-23 12:35 17.17032 78.88736 39857 ft 511 kts 341°
2026-04-23 12:35 17.23957 78.87045 39859 ft 511 kts 340°
2026-04-23 12:36 17.30892 78.85351 39851 ft 511 kts 340°
2026-04-23 12:36 17.37810 78.83659 39860 ft 511 kts 340°
2026-04-23 12:37 17.44737 78.81964 39869 ft 511 kts 340°
2026-04-23 12:37 17.51668 78.80272 39871 ft 511 kts 340°
2026-04-23 12:38 17.58602 78.78592 39873 ft 512 kts 340°
2026-04-23 12:38 17.65542 78.76912 39872 ft 512 kts 340°
2026-04-23 12:39 17.72479 78.75228 39869 ft 512 kts 340°
2026-04-23 12:39 17.79362 78.73556 39873 ft 512 kts 340°
2026-04-23 12:40 17.86303 78.71868 39869 ft 512 kts 340°
2026-04-23 12:40 17.93243 78.70179 39868 ft 512 kts 340°
2026-04-23 12:41 18.00178 78.68489 39863 ft 512 kts 340°
2026-04-23 12:41 18.07114 78.66798 39857 ft 512 kts 340°
2026-04-23 12:42 18.14057 78.65108 39852 ft 512 kts 340°
2026-04-23 12:42 18.20988 78.63399 39848 ft 511 kts 340°
2026-04-23 12:43 18.27911 78.61673 39843 ft 511 kts 340°
2026-04-23 12:43 18.34830 78.59951 39842 ft 511 kts 340°
2026-04-23 12:44 18.41744 78.58234 39838 ft 511 kts 340°
2026-04-23 12:44 18.48613 78.56528 39830 ft 510 kts 340°
2026-04-23 12:45 18.55522 78.54811 39828 ft 510 kts 340°
2026-04-23 12:45 18.62424 78.53094 39825 ft 510 kts 340°
2026-04-23 12:46 18.69320 78.51377 39821 ft 509 kts 340°
2026-04-23 12:46 18.76217 78.49658 39821 ft 509 kts 340°
2026-04-23 12:47 18.83110 78.47939 39815 ft 509 kts 339°
2026-04-23 12:47 18.90006 78.46218 39809 ft 509 kts 339°
2026-04-23 12:48 18.96895 78.44497 39811 ft 509 kts 339°
2026-04-23 12:48 19.03791 78.42772 39815 ft 509 kts 339°
2026-04-23 12:49 19.10683 78.41048 39811 ft 509 kts 339°
2026-04-23 12:49 19.17586 78.39319 39808 ft 509 kts 339°
2026-04-23 12:50 19.24462 78.37543 39810 ft 509 kts 338°
2026-04-23 12:50 19.31330 78.35710 39810 ft 509 kts 338°
2026-04-23 12:51 19.38199 78.33882 39800 ft 509 kts 338°
2026-04-23 12:51 19.45066 78.32066 39807 ft 509 kts 339°
2026-04-23 12:52 19.51896 78.30262 39803 ft 509 kts 338°
2026-04-23 12:52 19.58777 78.28445 39810 ft 510 kts 339°
2026-04-23 12:53 19.65663 78.26641 39797 ft 510 kts 339°
2026-04-23 12:53 19.72548 78.24838 39792 ft 510 kts 339°
2026-04-23 12:54 19.79435 78.23032 39791 ft 510 kts 339°
2026-04-23 12:54 19.86325 78.21223 39786 ft 510 kts 339°
2026-04-23 12:55 19.93212 78.19413 39784 ft 510 kts 338°
2026-04-23 12:55 20.00109 78.17598 39782 ft 510 kts 339°
2026-04-23 12:56 20.06996 78.15785 39777 ft 510 kts 339°
2026-04-23 12:56 20.13832 78.13984 39781 ft 509 kts 339°
2026-04-23 12:57 20.20710 78.12170 39778 ft 509 kts 339°
2026-04-23 12:57 20.27582 78.10356 39775 ft 509 kts 339°
2026-04-23 12:58 20.34457 78.08539 39779 ft 509 kts 339°
2026-04-23 12:58 20.41327 78.06722 39780 ft 509 kts 339°
2026-04-23 12:59 20.48196 78.04903 39780 ft 509 kts 339°
2026-04-23 12:59 20.55060 78.03085 39780 ft 509 kts 339°
2026-04-23 13:00 20.61958 78.01310 39779 ft 510 kts 340°
2026-04-23 13:00 20.68883 77.99635 39779 ft 511 kts 340°
2026-04-23 13:01 20.75769 77.97972 39779 ft 510 kts 340°
2026-04-23 13:01 20.82697 77.96280 39779 ft 510 kts 340°
2026-04-23 13:02 20.89619 77.94579 39783 ft 510 kts 340°
2026-04-23 13:02 20.96533 77.92877 39788 ft 510 kts 340°
2026-04-23 13:03 21.03457 77.91172 39790 ft 510 kts 340°
2026-04-23 13:03 21.10368 77.89468 39792 ft 510 kts 340°
2026-04-23 13:04 21.17286 77.87762 39799 ft 510 kts 340°
2026-04-23 13:04 21.24197 77.86056 39804 ft 510 kts 340°
2026-04-23 13:05 21.31060 77.84360 39809 ft 509 kts 340°
2026-04-23 13:05 21.37965 77.82651 39817 ft 509 kts 340°
2026-04-23 13:06 21.48321 77.80083 39825 ft 509 kts 340°
2026-04-23 13:07 21.55216 77.78374 39831 ft 509 kts 340°
2026-04-23 13:07 21.62115 77.76661 39834 ft 508 kts 340°
2026-04-23 13:08 21.68999 77.74951 39836 ft 508 kts 340°
2026-04-23 13:08 21.75886 77.73238 39838 ft 508 kts 340°
2026-04-23 13:09 21.82770 77.71524 39837 ft 508 kts 341°
2026-04-23 13:09 21.89645 77.69811 39835 ft 507 kts 341°
2026-04-23 13:10 21.96521 77.68096 39831 ft 507 kts 341°
2026-04-23 13:10 22.03395 77.66380 39824 ft 507 kts 341°
2026-04-23 13:11 22.10257 77.64647 39822 ft 506 kts 340°
2026-04-23 13:11 22.17098 77.62859 39814 ft 506 kts 340°
2026-04-23 13:12 22.23885 77.61078 39816 ft 505 kts 341°
2026-04-23 13:12 22.30710 77.59295 39806 ft 505 kts 341°
2026-04-23 13:13 22.37537 77.57514 39808 ft 504 kts 341°
2026-04-23 13:13 22.44351 77.55736 39798 ft 504 kts 341°
2026-04-23 13:14 22.51163 77.53957 39800 ft 503 kts 341°
2026-04-23 13:14 22.56821 77.52477 39788 ft 503 kts 341°
2026-04-23 13:15 22.63629 77.50695 39792 ft 503 kts 341°
2026-04-23 13:15 22.70430 77.48913 39789 ft 503 kts 341°
2026-04-23 13:16 22.78334 77.46839 39793 ft 502 kts 342°
2026-04-23 13:16 22.84027 77.45344 39790 ft 502 kts 342°
2026-04-23 13:17 22.90766 77.43573 39793 ft 502 kts 342°
2026-04-23 13:17 22.97545 77.41790 39789 ft 501 kts 342°
2026-04-23 13:18 23.04315 77.40007 39790 ft 500 kts 342°
2026-04-23 13:18 23.11075 77.38225 39789 ft 499 kts 342°
2026-04-23 13:19 23.17827 77.36443 39790 ft 499 kts 342°
2026-04-23 13:19 23.24553 77.34666 39787 ft 498 kts 342°
2026-04-23 13:20 23.31443 77.33548 39790 ft 502 kts 353°
2026-04-23 13:20 23.38428 77.33139 39784 ft 503 kts 354°
2026-04-23 13:21 23.45363 77.32840 39783 ft 502 kts 354°
2026-04-23 13:21 23.52344 77.32539 39780 ft 501 kts 354°
2026-04-23 13:22 23.59310 77.32222 39782 ft 501 kts 354°
2026-04-23 13:22 23.66272 77.31896 39778 ft 500 kts 354°
2026-04-23 13:23 23.73231 77.31569 39777 ft 500 kts 354°
2026-04-23 13:23 23.80179 77.31243 39774 ft 500 kts 354°
2026-04-23 13:24 23.87125 77.30918 39778 ft 499 kts 354°
2026-04-23 13:24 23.94065 77.30592 39779 ft 499 kts 355°
2026-04-23 13:25 24.00992 77.30266 39775 ft 498 kts 355°
2026-04-23 13:25 24.07870 77.29942 39777 ft 498 kts 355°
2026-04-23 13:26 24.14793 77.29616 39778 ft 497 kts 355°
2026-04-23 13:26 24.21704 77.29290 39778 ft 497 kts 355°
2026-04-23 13:27 24.28609 77.28964 39781 ft 496 kts 355°
2026-04-23 13:27 24.35506 77.28638 39777 ft 496 kts 355°
2026-04-23 13:28 24.42389 77.28313 39781 ft 495 kts 355°
2026-04-23 13:28 24.49273 77.27987 39776 ft 495 kts 355°
2026-04-23 13:29 24.56146 77.27661 39773 ft 494 kts 355°
2026-04-23 13:29 24.63017 77.27335 39780 ft 494 kts 355°
2026-04-23 13:30 24.69881 77.27009 39779 ft 493 kts 355°
2026-04-23 13:30 24.76696 77.26705 39777 ft 493 kts 355°
2026-04-23 13:31 24.83557 77.26420 39778 ft 493 kts 356°
2026-04-23 13:31 24.90410 77.26133 39776 ft 493 kts 355°
2026-04-23 13:32 24.97263 77.25842 39770 ft 492 kts 355°
2026-04-23 13:32 25.04108 77.25561 39782 ft 492 kts 356°
2026-04-23 13:33 25.10903 77.25318 39781 ft 492 kts 356°
2026-04-23 13:33 25.17738 77.25079 39788 ft 491 kts 356°
2026-04-23 13:34 25.24572 77.24834 39774 ft 491 kts 356°
2026-04-23 13:34 25.31395 77.24587 39771 ft 490 kts 356°
2026-04-23 13:35 25.38209 77.24338 39779 ft 490 kts 356°
2026-04-23 13:35 25.45018 77.24090 39781 ft 489 kts 356°
2026-04-23 13:36 25.51821 77.23842 39782 ft 489 kts 356°
2026-04-23 13:36 25.58611 77.23594 39784 ft 488 kts 356°
2026-04-23 13:37 25.65399 77.23346 39779 ft 488 kts 356°
2026-04-23 13:37 25.72188 77.23098 39779 ft 488 kts 356°
2026-04-23 13:38 25.78966 77.22850 39783 ft 487 kts 356°
2026-04-23 13:38 25.85742 77.22602 39783 ft 487 kts 356°
2026-04-23 13:39 25.92512 77.22353 39784 ft 487 kts 356°
2026-04-23 13:39 25.99234 77.22106 39786 ft 487 kts 356°
2026-04-23 13:40 26.06002 77.21858 39783 ft 486 kts 356°
2026-04-23 13:40 26.12772 77.21609 39783 ft 486 kts 356°
2026-04-23 13:41 26.19537 77.21628 39784 ft 487 kts
2026-04-23 13:41 26.26311 77.21968 39786 ft 487 kts
2026-04-23 13:42 26.33089 77.22255 39792 ft 487 kts 360°
2026-04-23 13:42 26.36476 77.22390 39622 ft 487 kts 360°
2026-04-23 13:42 26.39860 77.22522 39391 ft 487 kts 360°
2026-04-23 13:42 26.43245 77.22652 39160 ft 487 kts 360°
2026-04-23 13:43 26.46580 77.22779 38928 ft 487 kts 360°
2026-04-23 13:43 26.49968 77.22909 38723 ft 487 kts 360°
2026-04-23 13:43 26.53348 77.23037 38495 ft 487 kts
2026-04-23 13:43 26.56735 77.23166 38212 ft 487 kts
2026-04-23 13:44 26.60119 77.23295 37943 ft 487 kts
2026-04-23 13:44 26.63516 77.23425 37658 ft 488 kts
2026-04-23 13:44 26.66916 77.23554 37390 ft 490 kts
2026-04-23 13:44 26.70326 77.23684 37121 ft 491 kts
2026-04-23 13:45 26.73743 77.23815 36854 ft 492 kts 360°
2026-04-23 13:45 26.77171 77.23945 36592 ft 493 kts 360°
2026-04-23 13:45 26.80602 77.24077 36331 ft 494 kts 360°
2026-04-23 13:45 26.84037 77.24208 36074 ft 495 kts 360°
2026-04-23 13:46 26.87483 77.24340 35718 ft 493 kts 360°
2026-04-23 13:46 26.90906 77.24471 35034 ft 493 kts 360°
2026-04-23 13:46 26.94332 77.24602 34241 ft 495 kts 360°
2026-04-23 13:46 26.97742 77.24732 33336 ft 498 kts 359°
2026-04-23 13:47 27.01218 77.24865 32458 ft 501 kts 359°
2026-04-23 13:47 27.04715 77.24998 31940 ft 506 kts 360°
2026-04-23 13:47 27.08246 77.25133 31755 ft 510 kts 360°
2026-04-23 13:48 27.15306 77.25406 31182 ft 502 kts 360°
2026-04-23 13:48 27.18815 77.25541 30115 ft 507 kts 360°
2026-04-23 13:48 27.22357 77.25676 28954 ft 512 kts 360°
2026-04-23 13:48 27.25923 77.25813 27974 ft 511 kts
2026-04-23 13:49 27.29464 77.25950 27132 ft 508 kts
2026-04-23 13:49 27.32976 77.26086 26363 ft 503 kts
2026-04-23 13:49 27.36457 77.26221 25637 ft 498 kts
2026-04-23 13:49 27.39900 77.26354 24937 ft 492 kts
2026-04-23 13:50 27.43300 77.26485 24247 ft 487 kts
2026-04-23 13:50 27.46630 77.26614 23560 ft 482 kts
2026-04-23 13:50 27.49967 77.26743 22811 ft 478 kts
2026-04-23 13:50 27.53270 77.26871 22039 ft 472 kts
2026-04-23 13:51 27.56508 77.26997 21708 ft 458 kts
2026-04-23 13:51 27.59669 77.27120 21469 ft 452 kts
2026-04-23 13:51 27.62818 77.27241 21219 ft 453 kts
2026-04-23 13:51 27.65968 77.27363 20975 ft 452 kts
2026-04-23 13:52 27.69107 77.27484 20725 ft 451 kts
2026-04-23 13:52 27.72235 77.27606 20485 ft 449 kts
2026-04-23 13:52 27.75349 77.27727 20246 ft 447 kts
2026-04-23 13:52 27.78453 77.27847 20010 ft 446 kts
2026-04-23 13:53 27.81553 77.27968 19774 ft 444 kts
2026-04-23 13:53 27.84629 77.28087 19540 ft 443 kts
2026-04-23 13:53 27.87709 77.28207 19309 ft 441 kts
2026-04-23 13:53 27.90778 77.28327 19072 ft 440 kts
2026-04-23 13:54 27.93832 77.28446 18839 ft 439 kts
2026-04-23 13:54 27.96875 77.28564 18632 ft 437 kts
2026-04-23 13:54 27.99914 77.28683 18402 ft 436 kts
2026-04-23 13:54 28.02901 77.28799 18177 ft 435 kts
2026-04-23 13:55 28.05920 77.28917 17945 ft 433 kts
2026-04-23 13:55 28.08929 77.29035 17689 ft 432 kts
2026-04-23 13:55 28.11927 77.29152 17433 ft 430 kts
2026-04-23 13:55 28.14916 77.29270 17174 ft 429 kts
2026-04-23 13:56 28.17891 77.29386 16933 ft 427 kts
2026-04-23 13:56 28.20860 77.29503 16689 ft 425 kts
2026-04-23 13:56 28.23808 77.29618 16442 ft 424 kts
2026-04-23 13:56 28.26753 77.29734 16199 ft 422 kts
2026-04-23 13:57 28.29682 77.29849 15960 ft 420 kts
2026-04-23 13:57 28.32601 77.29963 15719 ft 419 kts
2026-04-23 13:57 28.35506 77.30077 15484 ft 417 kts
2026-04-23 13:57 28.38399 77.30191 15244 ft 416 kts
2026-04-23 13:58 28.41286 77.30304 15011 ft 414 kts
2026-04-23 13:58 28.44161 77.30417 14780 ft 412 kts
2026-04-23 13:58 28.47025 77.30492 14541 ft 410 kts 356°
2026-04-23 13:58 28.49863 77.30506 14303 ft 411 kts
2026-04-23 13:59 28.52587 77.31479 14078 ft 413 kts 25°
2026-04-23 13:59 28.54902 77.33407 13844 ft 415 kts 44°
2026-04-23 13:59 28.56542 77.36048 13639 ft 417 kts 63°
2026-04-23 13:59 28.57373 77.39199 13394 ft 418 kts 82°
2026-04-23 14:00 28.57426 77.41422 13109 ft 417 kts 94°
2026-04-23 14:00 28.56348 77.45544 12250 ft 409 kts 120°
2026-04-23 14:00 28.54592 77.48036 11577 ft 403 kts 140°
2026-04-23 14:00 28.52291 77.49792 10974 ft 395 kts 152°
2026-04-23 14:01 28.49910 77.51301 10509 ft 388 kts 152°
2026-04-23 14:01 28.47641 77.52808 10372 ft 369 kts 147°
2026-04-23 14:01 28.45731 77.54637 10284 ft 352 kts 134°
2026-04-23 14:01 28.44251 77.56774 10168 ft 336 kts 124°
2026-04-23 14:02 28.43120 77.59022 10068 ft 321 kts 117°
2026-04-23 14:02 28.42219 77.61290 9960 ft 308 kts 112°
2026-04-23 14:02 28.41469 77.63514 9858 ft 296 kts 110°
2026-04-23 14:02 28.40815 77.65692 9740 ft 288 kts 108°
2026-04-23 14:03 28.40468 77.67910 9640 ft 292 kts 89°
2026-04-23 14:03 28.40918 77.70158 9338 ft 294 kts 62°
2026-04-23 14:03 28.42237 77.71923 8700 ft 297 kts 33°
2026-04-23 14:03 28.44118 77.72807 8379 ft 292 kts
2026-04-23 14:04 28.46103 77.72735 8174 ft 284 kts 343°
2026-04-23 14:04 28.47839 77.71764 7936 ft 284 kts 320°
2026-04-23 14:04 28.49076 77.70052 7698 ft 281 kts 296°
2026-04-23 14:04 28.49580 77.67925 7459 ft 280 kts 272°
2026-04-23 14:05 28.49278 77.65759 7231 ft 279 kts 249°
2026-04-23 14:05 28.48223 77.63915 6992 ft 281 kts 226°
2026-04-23 14:05 28.46602 77.62687 6796 ft 282 kts 206°
2026-04-23 14:05 28.44911 77.61563 6734 ft 282 kts 220°
2026-04-23 14:06 28.43720 77.59842 6733 ft 279 kts 246°
2026-04-23 14:06 28.43300 77.57705 6734 ft 277 kts 270°
2026-04-23 14:06 28.43632 77.55561 6738 ft 277 kts 287°
2026-04-23 14:06 28.44231 77.53474 6735 ft 278 kts 288°
2026-04-23 14:07 28.44834 77.51386 6738 ft 278 kts 286°
2026-04-23 14:07 28.45794 77.47137 6737 ft 278 kts 284°
2026-04-23 14:07 28.46262 77.45007 6743 ft 277 kts 284°
2026-04-23 14:08 28.46733 77.42888 6625 ft 275 kts 284°
2026-04-23 14:08 28.47198 77.40809 6155 ft 277 kts 284°
2026-04-23 14:08 28.47677 77.38677 5660 ft 279 kts 284°
2026-04-23 14:08 28.48156 77.36541 5212 ft 279 kts 284°
2026-04-23 14:09 28.48635 77.34409 4785 ft 278 kts 284°
2026-04-23 14:09 28.49107 77.32309 4578 ft 268 kts 284°
2026-04-23 14:09 28.49560 77.30296 4422 ft 257 kts 284°
2026-04-23 14:09 28.49997 77.28375 4302 ft 246 kts 285°
2026-04-23 14:10 28.50407 77.26507 4054 ft 241 kts 284°
2026-04-23 14:10 28.50798 77.24683 3808 ft 234 kts 284°
2026-04-23 14:10 28.51180 77.22903 3233 ft 237 kts 284°
2026-04-23 14:10 28.51580 77.21042 2574 ft 228 kts 285°
2026-04-23 14:11 28.51828 77.19872 4273 ft 115 kts 284°
2026-04-23 14:11 28.52048 77.18874 4219 ft 148 kts 285°
2026-04-23 14:11 28.52218 77.18102 4157 ft 156 kts 284°
2026-04-23 14:11 28.52566 77.16489 4249 ft 160 kts 284°
2026-04-23 14:12 28.52832 77.15260 4486 ft 159 kts 284°
2026-04-23 14:12 28.53091 77.14063 4408 ft 156 kts 284°
2026-04-23 14:12 28.53379 77.12740 4310 ft 187 kts 284°
2026-04-23 14:12 28.53701 77.11250 4272 ft 203 kts 284°
2026-04-23 14:13 28.54058 77.09597 4206 ft 223 kts 284°
2026-04-23 14:13 28.54432 77.07870 4209 ft 225 kts 284°
2026-04-23 14:13 28.54809 77.06130 4545 ft 228 kts 284°
2026-04-23 14:13 28.55187 77.04386 5342 ft 228 kts 284°
2026-04-23 14:14 28.55566 77.02637 6177 ft 226 kts 284°
2026-04-23 14:14 28.55941 77.00899 6708 ft 227 kts 284°
2026-04-23 14:14 28.56108 76.99110 6948 ft 229 kts 267°
2026-04-23 14:14 28.55682 76.97370 6993 ft 231 kts 241°
2026-04-23 14:15 28.54552 76.96082 6994 ft 235 kts 210°
2026-04-23 14:15 28.52969 76.95686 6994 ft 238 kts 175°
2026-04-23 14:15 28.51916 76.96029 7006 ft 239 kts 155°
2026-04-23 14:15 28.49980 76.97289 6994 ft 241 kts 149°
2026-04-23 14:16 28.49031 76.97943 6996 ft 241 kts 150°
2026-04-23 14:16 28.47586 76.98912 6996 ft 241 kts 151°
2026-04-23 14:16 28.46131 76.99859 6995 ft 241 kts 151°
2026-04-23 14:16 28.44705 77.00857 6999 ft 242 kts 143°
2026-04-23 14:17 28.43536 77.02336 6995 ft 264 kts 120°
2026-04-23 14:17 28.43017 77.04360 6994 ft 271 kts 96°
2026-04-23 14:17 28.42868 77.06511 6989 ft 276 kts 93°
2026-04-23 14:17 28.42763 77.08744 6994 ft 289 kts 93°
2026-04-23 14:18 28.42654 77.11039 6991 ft 292 kts 93°
2026-04-23 14:18 28.42538 77.13347 6992 ft 293 kts 93°
2026-04-23 14:18 28.42419 77.15655 6993 ft 293 kts 93°
2026-04-23 14:18 28.42297 77.17967 6996 ft 293 kts 93°
2026-04-23 14:19 28.42175 77.20277 6996 ft 293 kts 93°
2026-04-23 14:19 28.42052 77.22586 6994 ft 293 kts 93°
2026-04-23 14:19 28.41928 77.24898 6993 ft 293 kts 93°
2026-04-23 14:19 28.41803 77.27210 6992 ft 293 kts 93°
2026-04-23 14:20 28.41680 77.29493 6993 ft 293 kts 93°
2026-04-23 14:20 28.41554 77.31806 6995 ft 294 kts 93°
2026-04-23 14:20 28.41428 77.34123 6992 ft 294 kts 93°
2026-04-23 14:20 28.41301 77.36436 6992 ft 294 kts 93°
2026-04-23 14:21 28.41174 77.38753 6994 ft 294 kts 93°
2026-04-23 14:21 28.41047 77.41068 6991 ft 294 kts 93°
2026-04-23 14:21 28.40919 77.43382 6989 ft 294 kts 93°
2026-04-23 14:21 28.40791 77.45701 6991 ft 294 kts 93°
2026-04-23 14:22 28.40662 77.48020 6988 ft 295 kts 93°
2026-04-23 14:22 28.40533 77.50347 6985 ft 295 kts 93°
2026-04-23 14:22 28.40403 77.52669 6982 ft 295 kts 93°
2026-04-23 14:22 28.40273 77.54988 6983 ft 295 kts 93°
2026-04-23 14:23 28.40143 77.57309 6982 ft 294 kts 93°
2026-04-23 14:23 28.40012 77.59630 6982 ft 294 kts 93°
2026-04-23 14:23 28.39881 77.61949 6979 ft 294 kts 93°
2026-04-23 14:23 28.39750 77.64268 6979 ft 294 kts 93°
2026-04-23 14:24 28.39678 77.66587 6978 ft 294 kts 86°
2026-04-23 14:24 28.40175 77.68818 6985 ft 292 kts 62°
2026-04-23 14:24 28.41449 77.70557 6977 ft 282 kts 35°
2026-04-23 14:24 28.43175 77.71335 6981 ft 259 kts
2026-04-23 14:25 28.44806 77.70925 6986 ft 236 kts 326°
2026-04-23 14:25 28.45796 77.69585 6989 ft 216 kts 288°
2026-04-23 14:25 28.45761 77.67985 6984 ft 201 kts 246°
2026-04-23 14:25 28.44793 77.66913 6980 ft 195 kts 202°
2026-04-23 14:26 28.43526 77.66610 7062 ft 184 kts 197°
2026-04-23 14:26 28.42376 77.65993 7079 ft 183 kts 218°
2026-04-23 14:26 28.41615 77.64873 7070 ft 181 kts 252°
2026-04-23 14:26 28.41606 77.63483 7048 ft 173 kts 282°
2026-04-23 14:27 28.42004 77.62216 6876 ft 178 kts 297°
2026-04-23 14:27 28.42767 77.60986 6790 ft 199 kts 312°
2026-04-23 14:27 28.43847 77.59980 6731 ft 203 kts 327°
2026-04-23 14:27 28.45035 77.59128 6718 ft 202 kts 314°
2026-04-23 14:28 28.45800 77.57815 6691 ft 200 kts 288°
2026-04-23 14:28 28.46120 77.56287 6651 ft 199 kts 279°
2026-04-23 14:28 28.46331 77.54730 6597 ft 200 kts 278°
2026-04-23 14:28 28.46532 77.53168 6559 ft 200 kts 278°
2026-04-23 14:29 28.46734 77.51611 6514 ft 199 kts 278°
2026-04-23 14:29 28.46937 77.50056 6462 ft 199 kts 278°
2026-04-23 14:29 28.47141 77.48502 6415 ft 199 kts 279°
2026-04-23 14:29 28.47346 77.46942 6191 ft 201 kts 279°
2026-04-23 14:30 28.47559 77.45322 5680 ft 215 kts 279°
2026-04-23 14:30 28.47778 77.43653 5498 ft 209 kts 279°
2026-04-23 14:30 28.47983 77.42090 5439 ft 190 kts 279°
2026-04-23 14:30 28.48170 77.40657 5346 ft 177 kts 279°
2026-04-23 14:31 28.48346 77.39317 5263 ft 166 kts 279°
2026-04-23 14:31 28.48508 77.38076 5174 ft 155 kts 279°
2026-04-23 14:31 28.48664 77.36873 5031 ft 149 kts 279°
2026-04-23 14:31 28.48706 77.35703 4833 ft 147 kts 271°
2026-04-23 14:32 28.48772 77.34572 4615 ft 144 kts 279°
2026-04-23 14:32 28.48965 77.33455 4378 ft 143 kts 284°
2026-04-23 14:32 28.49183 77.32350 4130 ft 143 kts 283°
2026-04-23 14:32 28.49413 77.31245 3892 ft 143 kts 285°
2026-04-23 14:33 28.49654 77.30147 3654 ft 142 kts 285°
2026-04-23 14:33 28.49875 77.29093 3609 ft 135 kts 284°
2026-04-23 14:33 28.50089 77.28043 3551 ft 137 kts 284°
2026-04-23 14:33 28.50305 77.26983 3496 ft 138 kts 285°
2026-04-23 14:34 28.50526 77.25924 3444 ft 138 kts 285°
2026-04-23 14:34 28.50754 77.24860 3327 ft 139 kts 285°
2026-04-23 14:34 28.50985 77.23800 3166 ft 138 kts 285°
2026-04-23 14:34 28.51215 77.22742 2992 ft 137 kts 285°
2026-04-23 14:35 28.51442 77.21693 2814 ft 137 kts 285°
2026-04-23 14:35 28.51670 77.20640 2647 ft 137 kts 285°
2026-04-23 14:35 28.51898 77.19589 2469 ft 137 kts 285°
2026-04-23 14:35 28.52122 77.18549 2310 ft 137 kts 285°
2026-04-23 14:36 28.52350 77.17493 2136 ft 137 kts 285°
2026-04-23 14:36 28.52578 77.16439 1965 ft 137 kts 286°
2026-04-23 14:36 28.52806 77.15388 1792 ft 137 kts 285°
2026-04-23 14:36 28.53033 77.14337 1631 ft 137 kts 285°
2026-04-23 14:37 28.53259 77.13291 1454 ft 136 kts 285°
2026-04-23 14:37 28.53486 77.12244 1290 ft 136 kts 284°
2026-04-23 14:37 28.53710 77.11204 1110 ft 135 kts 284°
2026-04-23 14:37 28.53928 77.10200 1128 ft 138 kts 284°
2026-04-23 14:38 28.54179 77.09050 807 ft 159 kts 284°
2026-04-23 14:38 28.54434 77.07901 747 ft 137 kts 284°
2026-04-23 14:38 28.54618 77.07062 740 ft 60 kts 284°
2026-04-23 14:38 28.54643 77.06945 738 ft 0 kts 284°
2026-04-23 14:39 28.54646 77.06931 738 ft 7 kts 284°
2026-04-23 14:39 28.54657 77.06894 737 ft 0 kts 293°
2026-04-23 14:39 28.54662 77.06882 737 ft 5 kts 293°
2026-04-23 14:40 28.54669 77.06872 716 ft 0 kts 322°
2026-04-23 14:40 28.54673 77.06871 710 ft 2 kts 337°
2026-04-23 14:40 28.54725 77.06858 737 ft 12 kts 357°
2026-04-23 14:40 28.54793 77.06886 737 ft 10 kts 42°
2026-04-23 14:41 28.54807 77.06957 738 ft 9 kts 99°
2026-04-23 14:41 28.54790 77.07042 739 ft 13 kts 103°
2026-04-23 14:41 28.54766 77.07163 740 ft 17 kts 103°
2026-04-23 14:41 28.54744 77.07266 741 ft 10 kts 104°
2026-04-23 14:42 28.54724 77.07356 742 ft 13 kts 103°
2026-04-23 14:42 28.54737 77.07425 743 ft 8 kts 52°
2026-04-23 14:42 28.54791 77.07483 741 ft 15 kts 39°
2026-04-23 14:42 28.54873 77.07542 740 ft 15 kts 20°
2026-04-23 14:43 28.54977 77.07578 741 ft 13 kts 15°
2026-04-23 14:43 28.55048 77.07608 743 ft 12 kts 33°
2026-04-23 14:43 28.55098 77.07691 743 ft 13 kts 58°
2026-04-23 14:43 28.55122 77.07755 743 ft 7 kts 87°
2026-04-23 14:44 28.55117 77.07826 741 ft 12 kts 96°
2026-04-23 14:44 28.55157 77.07897 741 ft 12 kts 42°
2026-04-23 14:44 28.55210 77.07966 740 ft 12 kts 55°
2026-04-23 14:44 28.55222 77.07989 743 ft 0 kts 60°
2026-04-23 14:45 28.55225 77.07996 743 ft 3 kts 63°
2026-04-23 14:45 28.55232 77.08024 742 ft 5 kts 83°
2026-04-23 14:45 28.55222 77.08058 741 ft 5 kts 127°
2026-04-23 14:46 28.55195 77.08077 741 ft 6 kts 153°
2026-04-23 14:46 28.55182 77.08084 744 ft 0 kts 153°